Bremerton, WA

5:06 AM PDT on May 25, 2017 (GMT -0700)
Bremerton National

Weather History for KPWT - March, 2014

Change the Weather History Date:

Saturday, March 1, 2014

  Actual Average Record
Temperature  
Mean Temperature 42 °F -  
Max Temperature 46 °F 46 °F 59 °F (2005)
Min Temperature 37 °F 32 °F 24 °F (2002)
Degree Days  
Heating Degree Days 24    
Moisture  
Dew Point 36 °F    
Average Humidity 84    
Maximum Humidity 100    
Minimum Humidity 61    
Precipitation  
Precipitation 0.03 in - - ()
Sea Level Pressure  
Sea Level Pressure 29.65 in    
Wind  
Wind Speed 8 mph (NE)    
Max Wind Speed 14 mph    
Max Gust Speed 20 mph    
Visibility 10 miles    
Events      
Averages and records for this station are not official NWS values.
T = Trace of Precipitation, MM = Missing Value Source: NWS Daily Summary

Daily Weather History Graph

Daily Weather History Graph

Search for Another Location

Airport or City:

Trip Planner

Search our weather history database for the weather conditions in past years. The results will help you decide how hot, cold, wet, or windy it might be!

Date:

Astronomy

Mar. 01, 2014 Rise Set
Actual Time 6:51 AM PST 5:56 PM PST
Civil Twilight 6:20 AM PST 6:27 PM PST
Nautical Twilight 5:44 AM PST 7:02 PM PST
Astronomical Twilight 5:09 AM PST 7:38 PM PST
Moon 6:44 AM PST (3/1) 6:56 PM PST (3/1)
Length of Visible Light 12h 06m
Length of Day
11h 05m
New Moon, 0% of the Moon is Illuminated
Mar 1
New Moon
Mar 8
First Quarter
Mar 16
Full
Mar 23
Last Quarter
Mar 30
New

Hourly Weather History & Observations

Time (PST) Temp. Windchill Dew Point Humidity Pressure Visibility Wind Dir Wind Speed Gust Speed Precip Events Conditions
12:15 AM 39.2 °F 32.0 °F 30.2 °F 70% 29.55 in 10.0 mi NNE 11.5 mph - N/A   Clear
12:35 AM 39.2 °F 32.5 °F 30.2 °F 70% 29.56 in 10.0 mi NNE 10.4 mph - N/A   Clear
12:55 AM 39.2 °F 32.5 °F 28.4 °F 65% 29.57 in 10.0 mi NNE 10.4 mph - N/A   Scattered Clouds
1:15 AM 39.2 °F 32.0 °F 28.4 °F 65% 29.56 in 10.0 mi NNE 11.5 mph 19.6 mph N/A   Mostly Cloudy
1:55 AM 39.2 °F 33.0 °F 28.4 °F 65% 29.57 in 10.0 mi NNE 9.2 mph - N/A   Overcast
2:15 AM 41.0 °F 34.3 °F 28.4 °F 61% 29.58 in 10.0 mi NNE 11.5 mph - N/A   Overcast
2:35 AM 41.0 °F 34.7 °F 28.4 °F 61% 29.57 in 10.0 mi NE 10.4 mph - N/A   Overcast
2:55 AM 41.0 °F 35.2 °F 28.4 °F 61% 29.59 in 10.0 mi NNE 9.2 mph - N/A   Overcast
3:15 AM 41.0 °F 35.2 °F 28.4 °F 61% 29.58 in 10.0 mi NE 9.2 mph - N/A   Overcast
3:35 AM 39.2 °F 34.2 °F 28.4 °F 65% 29.59 in 10.0 mi NE 6.9 mph - N/A   Overcast
3:55 AM 39.2 °F 33.6 °F 30.2 °F 70% 29.58 in 10.0 mi NE 8.1 mph - N/A   Overcast
4:15 AM 39.2 °F 34.2 °F 30.2 °F 70% 29.59 in 10.0 mi NE 6.9 mph - N/A   Overcast
4:35 AM 39.2 °F 33.0 °F 30.2 °F 70% 29.59 in 10.0 mi NNE 9.2 mph - N/A   Overcast
4:55 AM 39.2 °F 33.0 °F 30.2 °F 70% 29.60 in 10.0 mi NE 9.2 mph - N/A   Overcast
5:15 AM 39.2 °F 33.0 °F 32.0 °F 75% 29.60 in 10.0 mi NE 9.2 mph - N/A   Mostly Cloudy
5:35 AM 39.2 °F 33.0 °F 33.8 °F 81% 29.61 in 10.0 mi NNE 9.2 mph - N/A   Mostly Cloudy
5:55 AM 39.2 °F 32.0 °F 33.8 °F 81% 29.60 in 10.0 mi NE 11.5 mph - N/A   Overcast
6:15 AM 39.2 °F 33.0 °F 33.8 °F 81% 29.62 in 10.0 mi NE 9.2 mph 16.1 mph N/A   Overcast
6:35 AM 39.2 °F 32.5 °F 33.8 °F 81% 29.61 in 10.0 mi NNE 10.4 mph - N/A   Overcast
6:55 AM 39.2 °F 32.5 °F 33.8 °F 81% 29.63 in 10.0 mi NNE 10.4 mph - N/A   Overcast
7:15 AM 39.2 °F 32.5 °F 33.8 °F 81% 29.63 in 10.0 mi NNE 10.4 mph - N/A   Overcast
7:35 AM 39.2 °F 33.6 °F 35.6 °F 87% 29.65 in 10.0 mi NNE 8.1 mph - N/A   Overcast
7:55 AM 39.2 °F 32.5 °F 35.6 °F 87% 29.65 in 10.0 mi NE 10.4 mph - N/A   Overcast
8:15 AM 39.2 °F 32.0 °F 37.4 °F 93% 29.66 in 10.0 mi NNE 11.5 mph - N/A   Overcast
8:35 AM 39.2 °F 32.5 °F 37.4 °F 93% 29.66 in 10.0 mi NNE 10.4 mph 16.1 mph N/A   Overcast
8:55 AM 39.2 °F 32.0 °F 37.4 °F 93% 29.67 in 10.0 mi NNE 11.5 mph - N/A   Overcast
9:15 AM 39.2 °F 33.6 °F 35.6 °F 87% 29.68 in 10.0 mi NNE 8.1 mph - N/A   Overcast
9:35 AM 39.2 °F 33.6 °F 37.4 °F 93% 29.69 in 10.0 mi NNE 8.1 mph - N/A   Overcast
9:55 AM 39.2 °F 34.2 °F 37.4 °F 93% 29.69 in 10.0 mi NNE 6.9 mph - N/A   Overcast
10:15 AM 39.2 °F 33.6 °F 37.4 °F 93% 29.69 in 10.0 mi NNE 8.1 mph - N/A   Mostly Cloudy
10:35 AM 39.2 °F 33.0 °F 37.4 °F 93% 29.70 in 10.0 mi NNE 9.2 mph - N/A   Overcast
10:55 AM 41.0 °F 35.8 °F 37.4 °F 87% 29.69 in 10.0 mi NNE 8.1 mph - N/A   Overcast
11:15 AM 41.0 °F 38.0 °F 39.2 °F 93% 29.70 in 10.0 mi North 4.6 mph - N/A   Overcast
11:35 AM 41.0 °F 38.0 °F 39.2 °F 93% 29.70 in 10.0 mi North 4.6 mph - N/A   Overcast
11:55 AM 41.0 °F 39.0 °F 39.2 °F 93% 29.69 in 10.0 mi NNE 3.5 mph - N/A   Overcast
12:15 PM 41.0 °F 38.0 °F 39.2 °F 93% 29.68 in 10.0 mi NE 4.6 mph - N/A   Overcast
12:35 PM 41.0 °F - 39.2 °F 93% 29.69 in 7.0 mi Calm Calm - N/A   Overcast
12:55 PM 39.2 °F 37.0 °F 39.2 °F 100% 29.69 in 10.0 mi East 3.5 mph - N/A   Overcast
1:15 PM 39.2 °F 37.0 °F - N/A% 29.69 in 9.0 mi ENE 3.5 mph - 0.01 in   Overcast
1:35 PM 39.2 °F - 39.2 °F 100% 29.68 in 10.0 mi Calm Calm - 0.02 in   Overcast
1:55 PM 39.2 °F 37.0 °F 39.2 °F 100% 29.69 in 10.0 mi NE 3.5 mph - 0.02 in   Overcast
2:15 PM 39.2 °F 37.0 °F 39.2 °F 100% 29.68 in 10.0 mi NE 3.5 mph - N/A   Overcast
2:35 PM 39.2 °F 35.9 °F - N/A% 29.69 in 10.0 mi ENE 4.6 mph - N/A   Overcast
2:55 PM 39.2 °F 37.0 °F - N/A% 29.68 in 10.0 mi East 3.5 mph - N/A   Overcast
3:15 PM 39.2 °F 37.0 °F - N/A% 29.68 in 10.0 mi NE 3.5 mph - N/A   Overcast
3:35 PM 39.2 °F 35.9 °F - N/A% 29.68 in 10.0 mi NNE 4.6 mph - N/A   Overcast
3:55 PM 39.2 °F 35.9 °F - N/A% 29.67 in 10.0 mi NNE 4.6 mph - N/A   Overcast
4:15 PM 37.4 °F 33.8 °F - N/A% 29.68 in 10.0 mi NE 4.6 mph - N/A   Overcast
4:35 PM 37.4 °F 34.9 °F - N/A% 29.67 in 10.0 mi NNE 3.5 mph - N/A   Overcast
4:55 PM 37.4 °F 33.8 °F - N/A% 29.67 in 10.0 mi NNE 4.6 mph - N/A   Overcast
5:15 PM 37.4 °F 33.8 °F - N/A% 29.67 in 10.0 mi NE 4.6 mph - N/A   Overcast
5:35 PM 37.4 °F - - N/A% 29.67 in 10.0 mi Calm Calm - N/A   Overcast
5:55 PM 37.4 °F 33.8 °F - N/A% 29.67 in 7.0 mi NNE 4.6 mph - N/A   Overcast
6:15 PM 37.4 °F 33.8 °F - N/A% 29.67 in 10.0 mi North 4.6 mph - 0.01 in   Overcast
6:35 PM 37.4 °F 34.9 °F - N/A% 29.68 in 10.0 mi NNE 3.5 mph - 0.01 in   Overcast
6:55 PM 37.4 °F - - N/A% 29.68 in 10.0 mi Calm Calm - 0.01 in   Overcast
7:15 PM 37.4 °F 34.9 °F - N/A% 29.68 in 10.0 mi NE 3.5 mph - N/A   Overcast
7:35 PM 37.4 °F - - N/A% 29.67 in 10.0 mi Calm Calm - N/A   Overcast
7:55 PM 37.4 °F - - N/A% 29.68 in 10.0 mi Calm Calm - N/A   Overcast
8:15 PM 37.4 °F - - N/A% 29.67 in 10.0 mi Calm Calm - N/A   Overcast
8:35 PM 39.2 °F - - N/A% 29.68 in 10.0 mi Calm Calm - N/A   Overcast
8:55 PM 39.2 °F - - N/A% 29.68 in 7.0 mi Calm Calm - N/A   Overcast
9:15 PM 42.8 °F 41.1 °F 42.8 °F 100% 29.68 in 10.0 mi SE 3.5 mph - N/A   Overcast
9:35 PM 39.2 °F - - N/A% 29.69 in 10.0 mi Calm Calm - N/A   Overcast
9:55 PM 41.0 °F - 41.0 °F 100% 29.68 in 10.0 mi Calm Calm - N/A   Overcast
10:15 PM 42.8 °F - 42.8 °F 100% 29.69 in 10.0 mi Calm Calm - N/A   Overcast
10:35 PM 42.8 °F 37.5 °F - N/A% 29.68 in 10.0 mi South 9.2 mph - N/A   Overcast
10:55 PM 44.6 °F 38.4 °F 44.6 °F 100% 29.69 in 10.0 mi South 12.7 mph 17.3 mph N/A   Overcast
11:15 PM 46.4 °F 41.1 °F 46.4 °F 100% 29.68 in 10.0 mi South 11.5 mph 19.6 mph N/A   Overcast
11:35 PM 46.4 °F 40.4 °F 44.6 °F 93% 29.69 in 10.0 mi South 13.8 mph - N/A   Overcast
11:55 PM 46.4 °F 40.7 °F 46.4 °F 100% 29.69 in 8.0 mi South 12.7 mph - N/A   Overcast